Location: Altleiningen
(49.5078°N, 8.0741°E)
Time: 05:14:23
(UTC+00:00)

MOS 1 - Pass Details

Date: 03 March 2021
Orbit: 878 x 892 km, 99.1° (Epoch: 11 April)

Event Time Altitude Azimuth Distance (km) Brightness Sun altitude
Exits shadow 19:25:59 22° 165° (SSE) 1,845 5.7 -22.0°
Maximum altitude 19:29:49 86° 253° (WSW) 897 4.3 -22.6°
Drops below altitude 10° 19:35:32 10° 344° (NNW) 2,559 7.1 -23.5°
Sets 19:37:56 0° 345° (NNW) 3,500 7.9 -23.9°
